Weather History for PABR - June, 2013

Change the Weather History Date:

Monday, June 24, 2013

  Actual Average Record
Temperature  
Mean Temperature 36 °F 39 °F  
Max Temperature 38 °F 44 °F 64 °F (2006)
Min Temperature 33 °F 33 °F 24 °F (1978)
Degree Days  
Heating Degree Days 29 26  
Month to date heating degree days 635 727  
Since 1 June heating degree days 635 727  
Since 1 July heating degree days 18070 19234  
Cooling Degree Days 0    
Month to date cooling degree days 0  
Year to date cooling degree days 0  
Since 1 June cooling degree days 0  
Moisture  
Dew Point 30 °F    
Average Humidity 0    
Maximum Humidity 93    
Minimum Humidity 76    
Precipitation  
Precipitation T in 0.01 in 0.23 in (2004)
Month to date precipitation 0.56 0.22  
Year to date precipitation 1.78 0.92  
Snow  
Snow 0.00 in 0.00 in 0.50 in (1949)
Month to date snowfall 0.2 0.7  
Since 1 June snowfall 0.2 0.7  
Since 1 July snowfall 62.7 37.7  
Snow Depth 0.00 in    
Sea Level Pressure  
Sea Level Pressure 30.03 in    
Wind  
Wind Speed 15 mph (NNE)    
Max Wind Speed 22 mph    
Max Gust Speed 26 mph    
Visibility 4 miles    
Events Fog    
T = Trace of Precipitation, MM = Missing Value Source: NWS Daily Summary

Daily Weather History Graph

Daily Weather History Graph

Search for Another Location

Airport or City:

Trip Planner

Search our weather history database for the weather conditions in past years. The results will help you decide how hot, cold, wet, or windy it might be!

Date:

Astronomy

Dec. 31, 1969 Rise Set
Actual Time Sun does not set Sun does not set
Civil Twilight Sun does not set Sun does not set
Nautical Twilight Sun does not set Sun does not set
Astronomical Twilight Sun does not set Sun does not set
Moon 2:25 AM AKDT (6/24) 4:44 AM AKDT (6/24)
Length of Visible Light 24h 00m
Length of Day
24h 00m
Full, 97% of the Moon is Illuminated
Jun 24
Full
Jun 29
Last Quarter
Jul 7
New
Jul 15
First Quarter
Jul 22
Full

Hourly Weather History & Observations

Time (AKDT) Temp. Windchill Dew Point Humidity Pressure Visibility Wind Dir Wind Speed Gust Speed Precip Events Conditions
12:35 AM 33.8 °F 27.7 °F 30.2 °F 87% 29.94 in 2.0 mi North 6.9 mph - 0.00 in   Light Drizzle
12:44 AM 33.8 °F 27.0 °F 30.2 °F 87% 29.94 in 3.0 mi North 8.1 mph - 0.00 in   Light Drizzle
12:51 AM 33.8 °F 26.4 °F 30.2 °F 87% 29.94 in 2.0 mi North 9.2 mph - 0.00 in   Light Drizzle
12:52 AM 34.0 °F 26.6 °F 30.9 °F 89% 29.94 in 2.0 mi North 9.2 mph - 0.00 in   Light Drizzle
1:08 AM 33.8 °F 26.4 °F 30.2 °F 87% 29.94 in 4.0 mi North 9.2 mph - 0.00 in   Light Drizzle
1:23 AM 33.8 °F 27.0 °F 30.2 °F 87% 29.94 in 2.0 mi North 8.1 mph - 0.00 in   Light Drizzle
1:34 AM 33.8 °F 27.0 °F 30.2 °F 87% 29.95 in 7.0 mi North 8.1 mph - 0.00 in   Light Drizzle
1:53 AM 34.0 °F 28.0 °F 30.9 °F 89% 29.96 in 4.0 mi North 6.9 mph - 0.00 in   Light Drizzle
2:00 AM 33.8 °F 27.0 °F 30.2 °F 87% 29.95 in 1.8 mi North 8.1 mph - 0.00 in   Light Drizzle
2:15 AM 33.8 °F 27.0 °F 30.2 °F 87% 29.95 in 0.8 mi North 8.1 mph - 0.00 in   Light Drizzle
2:28 AM 33.8 °F 27.0 °F 30.2 °F 87% 29.96 in 1.0 mi North 8.1 mph - 0.00 in   Light Drizzle
2:53 AM 34.0 °F 26.6 °F 30.9 °F 89% 29.97 in 1.8 mi North 9.2 mph - 0.00 in   Light Drizzle
3:00 AM 33.8 °F 26.4 °F 30.2 °F 87% 29.96 in 2.5 mi North 9.2 mph - 0.00 in   Light Drizzle
3:12 AM 33.8 °F 27.0 °F 30.2 °F 87% 29.97 in 6.0 mi North 8.1 mph - 0.00 in   Light Drizzle
3:26 AM 33.8 °F 27.7 °F 30.2 °F 87% 29.97 in 2.5 mi North 6.9 mph - 0.00 in   Light Drizzle
3:35 AM 33.8 °F 27.7 °F 30.2 °F 87% 29.97 in 1.0 mi North 6.9 mph - 0.00 in   Light Drizzle
3:43 AM 33.8 °F 27.0 °F 30.2 °F 87% 29.97 in 0.8 mi North 8.1 mph - 0.00 in   Light Drizzle
3:45 AM 33.8 °F 27.7 °F 30.2 °F 87% 29.97 in 0.5 mi North 6.9 mph - 0.00 in Fog Light Drizzle
3:53 AM 34.0 °F 27.2 °F 30.9 °F 89% 29.97 in 0.5 mi North 8.1 mph - 0.00 in Fog Light Drizzle
4:08 AM 33.8 °F 27.0 °F 32.0 °F 93% 29.97 in 0.8 mi North 8.1 mph - 0.00 in   Light Drizzle
4:41 AM 33.8 °F 27.0 °F 30.2 °F 87% 29.98 in 1.2 mi North 8.1 mph - 0.00 in   Light Drizzle
4:53 AM 34.0 °F 26.6 °F 30.9 °F 89% 29.99 in 1.8 mi North 9.2 mph - 0.00 in   Light Drizzle
5:04 AM 33.8 °F 26.4 °F 30.2 °F 87% 29.98 in 1.8 mi North 9.2 mph - 0.00 in   Light Drizzle
5:35 AM 33.8 °F 26.4 °F 30.2 °F 87% 29.99 in 3.0 mi North 9.2 mph - 0.00 in   Light Drizzle
5:53 AM 34.0 °F 26.6 °F 30.9 °F 89% 29.99 in 3.0 mi NNE 9.2 mph - 0.00 in   Light Drizzle
6:02 AM 33.8 °F 26.4 °F 30.2 °F 87% 29.99 in 2.0 mi NNE 9.2 mph - 0.00 in   Light Drizzle
6:40 AM 33.8 °F 26.4 °F 30.2 °F 87% 30.00 in 1.2 mi North 9.2 mph - 0.00 in   Light Drizzle
6:53 AM 34.0 °F 26.0 °F 30.9 °F 89% 30.01 in 1.2 mi NNE 10.4 mph - 0.00 in   Light Drizzle
7:10 AM 33.8 °F 25.8 °F 30.2 °F 87% 30.01 in 6.0 mi NNE 10.4 mph - 0.00 in   Overcast
7:51 AM 33.8 °F 25.8 °F 30.2 °F 87% 30.02 in 4.0 mi NNE 10.4 mph - 0.00 in   Light Drizzle
7:53 AM 34.0 °F 25.5 °F 30.9 °F 89% 30.02 in 4.0 mi NNE 11.5 mph - 0.00 in   Light Drizzle
8:30 AM 33.8 °F 25.8 °F 30.2 °F 87% 30.03 in 1.8 mi NNE 10.4 mph - 0.00 in   Light Drizzle
8:36 AM 33.8 °F 25.8 °F 30.2 °F 87% 30.03 in 1.5 mi NNE 10.4 mph - 0.00 in   Light Drizzle
8:53 AM 33.1 °F 24.4 °F 30.9 °F 92% 30.04 in 1.5 mi NNE 11.5 mph - 0.00 in   Light Drizzle
8:56 AM 33.8 °F 25.8 °F 30.2 °F 87% 30.03 in 3.0 mi NNE 10.4 mph - 0.00 in   Light Drizzle
9:53 AM 34.0 °F 25.0 °F 30.0 °F 85% 30.05 in 10.0 mi NNE 12.7 mph - 0.00 in   Overcast
10:08 AM 35.6 °F 26.6 °F 30.2 °F 81% 30.05 in 10.0 mi NNE 13.8 mph - N/A   Overcast
10:53 AM 35.1 °F 25.9 °F 30.0 °F 82% 30.06 in 10.0 mi NNE 13.8 mph - N/A   Overcast
11:53 AM 35.1 °F 25.9 °F 30.9 °F 85% 30.07 in 10.0 mi NNE 13.8 mph - N/A   Overcast
12:00 PM 35.6 °F 26.2 °F 30.2 °F 81% 30.07 in 10.0 mi NE 15.0 mph - N/A   Overcast
12:53 PM 37.0 °F 27.4 °F 30.9 °F 79% 30.08 in 10.0 mi ENE 17.3 mph - N/A   Overcast
1:53 PM 37.9 °F 28.2 °F 30.9 °F 76% 30.09 in 10.0 mi ENE 18.4 mph - N/A   Overcast
2:53 PM 37.0 °F 27.7 °F 30.9 °F 79% 30.10 in 10.0 mi NE 16.1 mph - N/A   Overcast
3:53 PM 37.0 °F 26.7 °F 30.9 °F 79% 30.11 in 10.0 mi NE 19.6 mph - N/A   Overcast
4:53 PM 37.9 °F 28.5 °F 30.9 °F 76% 30.11 in 10.0 mi NE 17.3 mph - N/A   Overcast
5:53 PM 36.0 °F 25.6 °F 30.9 °F 82% 30.12 in 10.0 mi ENE 18.4 mph - N/A   Overcast
6:53 PM 36.0 °F 24.7 °F 30.9 °F 82% 30.12 in 10.0 mi NE 21.9 mph - N/A   Overcast
7:53 PM 35.1 °F 23.5 °F 30.0 °F 82% 30.12 in 10.0 mi ENE 21.9 mph - N/A   Overcast
8:53 PM 35.1 °F 24.5 °F 30.0 °F 82% 30.13 in 10.0 mi ENE 18.4 mph - N/A   Overcast
9:53 PM 34.0 °F 23.0 °F 30.9 °F 89% 30.13 in 5.0 mi ENE 18.4 mph - N/A   Overcast
10:28 PM 33.8 °F 22.8 °F 30.2 °F 87% 30.13 in 4.0 mi ENE 18.4 mph - N/A   Overcast
10:51 PM 33.8 °F 23.5 °F 30.2 °F 87% 30.13 in 2.5 mi ENE 16.1 mph - N/A   Overcast
10:53 PM 34.0 °F 22.7 °F 30.9 °F 89% 30.13 in 2.5 mi ENE 19.6 mph - N/A   Overcast
11:05 PM 33.8 °F 23.2 °F 30.2 °F 87% 30.13 in 4.0 mi ENE 17.3 mph - N/A   Overcast
11:22 PM 33.8 °F 22.2 °F 30.2 °F 87% 30.13 in 2.5 mi ENE 20.7 mph - N/A   Overcast
11:33 PM 33.8 °F 22.8 °F 30.2 °F 87% 30.14 in 5.0 mi ENE 18.4 mph - N/A   Overcast
11:53 PM 33.1 °F 22.6 °F 28.9 °F 85% 30.14 in 10.0 mi East 16.1 mph 25.3 mph 0.00 in   Light Drizzle